{"data":{"norad_id":56322,"epoch":"2026-09-20T22:00:03.000096Z","epoch_age_seconds":72578,"freshness":"FRESH","line1":"1 56322U 23058F   26263.91670139  .00077882  00000+0  35211-2 0  9996","line2":"2 56322  97.2835 257.8570 0002779  83.9052 218.3214 15.20606567  5486","mean_motion":15.20606567,"eccentricity":0.0002779,"inclination_deg":97.2835,"raan_deg":257.857,"arg_perigee_deg":83.9052,"mean_anomaly_deg":218.3214,"bstar":0.0035211,"rev_number":548,"period_min":94.699051763335,"perigee_km":502.09727322901,"apogee_km":505.92237043259,"semimajor_km":6882.1468218308,"source":"CELESTRAK","updated_at":"2026-09-21T09:00:33.401425Z"}}